Find Marafon-D GVM

NORAD ID: 59072 Int'l Des: 2024-039 Owner: NPOPM Country: RU operational
LEOCIRCULARPOLAR

当前视图

正在加载3D地球...

About Marafon-D GVM

Marafon-D GVM (NORAD 59072) is a satellite launched Feb 29, 2024 by NPOPM of RU. It operates in LEO, CIRCULAR, POLAR orbit with a mass of 50.00 kg.

即将过境

Passes for default location (London). Set your location on the main map for personalized predictions.

高度历史

Loading altitude history...

两行轨道根数

1 59072U 24039V 26195.22027918 .00000148 00000-0 37334-4 0 9992
2 59072 88.9830 280.5962 0014414 240.6603 119.3162 14.46021795125097
Epoch: Jul 14, 2026 • Age: 4 hours

当前状态

高度 753.5 km
远地点 / 近地点 N/A
速度 7.48 km/s
星下点 58.30°N, 29.12°E
发射日期 Feb 29, 2024
运行时间 2.3 years
类型 other

技术详情

分类 Payload
质量 50.00 kg
干质量 50.00 kg
总质量 50.00 kg
长度 0.70 m
直径 0.30 m
跨度 0.70 m
形状 Box
制造商 NPOPM
平台类型 Marafon
阶段状态 In Orbit
所有者/国家 NPOPM/RU

Most Searched